Theta_e
340 338 332 329 330 327 324 329 332 333 335 337 338 338 340 340 340 340 340 339 337 337 337 337 336 334 333 333 334 335 335 335 335 335 335 335 334 331 329 327 326 326 326 327 326 326 325 325 324 324 324 324 324 324 325 325 326 326 325 325 325 325 325 325 325 325 325 324 324 324 325 325 325 323
341 340 336 330 327 327 327 328 330 331 336 339 339 340 340 341 341 340 340 337 334 335 336 335 335 333 332 333 335 335 334 336 336 336 336 336 336 335 332 329 326 325 325 326 327 326 325 325 325 324 324 325 324 325 325 326 326 326 326 326 326 326 326 326 326 326 326 325 325 325 326 325 324 323
340 340 339 335 329 327 330 330 330 332 336 338 340 341 340 340 340 340 340 337 333 332 333 333 334 334 332 333 335 335 334 336 336 336 336 336 336 335 333 329 327 324 324 325 326 325 325 325 325 325 325 325 325 325 325 326 326 327 327 327 327 327 326 326 326 326 325 325 325 326 325 325 323 321
339 338 338 338 334 329 329 331 332 334 335 336 337 339 340 340 340 339 339 336 331 329 331 331 334 335 335 334 335 335 335 335 336 336 336 336 337 336 333 329 327 324 324 324 325 325 325 325 325 326 326 326 326 326 326 326 327 327 327 327 327 327 326 326 325 324 325 325 325 325 325 323 320 316
338 337 335 337 337 334 330 329 331 333 334 334 335 337 337 337 338 338 338 335 331 328 329 330 332 335 335 335 334 334 335 336 336 336 336 337 337 336 334 332 330 327 324 324 325 325 325 326 327 327 327 327 328 327 327 326 326 327 327 327 326 326 325 324 324 324 324 324 325 325 323 321 317 313
337 336 335 335 336 338 335 330 329 330 331 333 334 333 334 334 334 333 334 334 331 328 327 328 329 332 333 334 334 334 335 335 336 336 337 337 337 336 335 334 333 331 327 325 324 325 325 326 328 329 329 330 330 329 327 327 326 326 326 326 326 325 324 324 323 324 324 324 324 323 321 318 314 312
337 336 336 335 335 336 338 335 330 329 330 332 332 332 331 332 332 331 331 331 330 327 325 326 326 329 330 331 332 334 336 336 337 337 336 337 338 337 335 334 333 331 329 327 325 325 325 326 328 330 330 331 331 330 330 328 327 327 327 327 327 326 325 324 324 325 325 324 322 320 317 314 312 310
337 337 336 335 335 335 336 336 334 332 330 330 329 330 331 330 330 330 330 329 328 327 326 325 324 326 327 328 330 333 336 337 337 338 337 337 337 336 335 336 335 333 331 329 327 326 325 325 328 330 331 331 332 332 331 330 328 328 328 328 328 327 327 326 326 325 324 321 317 315 314 312 310 308
334 335 335 335 335 336 335 335 336 335 333 331 329 328 328 329 328 329 329 328 328 327 326 325 324 324 325 326 328 331 334 336 338 338 337 337 336 335 336 336 336 335 333 331 330 328 327 326 327 330 332 332 333 332 331 330 330 329 329 328 327 327 326 326 326 324 321 317 313 312 312 310 307 306
332 333 333 333 334 335 335 335 335 336 336 335 332 329 327 327 328 328 328 327 327 327 325 325 325 324 324 325 326 328 331 334 336 337 337 336 335 335 336 336 335 336 335 333 330 330 329 328 329 331 333 333 332 332 332 330 330 329 329 328 327 325 324 324 323 321 318 315 312 310 309 307 305 304
333 333 333 333 333 333 333 334 335 335 336 336 334 331 329 327 327 328 328 327 327 326 325 325 326 325 325 324 324 326 329 333 335 336 336 336 334 334 335 335 336 336 337 335 332 332 331 330 331 332 333 334 333 332 332 331 330 330 329 328 326 324 322 321 321 320 318 314 310 309 307 304 303 303
334 334 334 334 333 333 332 332 332 333 334 335 336 335 332 330 329 327 328 328 328 328 328 327 326 326 326 326 325 325 327 330 331 330 331 331 331 333 335 336 336 337 338 337 335 334 334 333 333 333 333 333 333 333 332 332 331 330 329 327 326 324 321 319 320 321 320 315 310 307 305 303 303 303
335 335 335 335 334 333 333 332 331 332 333 334 335 335 335 334 333 331 329 327 328 329 329 328 328 328 328 327 327 327 326 327 326 326 327 329 330 333 335 336 336 337 339 339 338 337 336 336 335 334 333 333 333 333 333 332 331 330 328 327 325 322 320 318 319 321 321 315 309 305 304 303 303 303
338 337 337 336 336 335 335 335 334 333 332 333 334 335 335 335 336 336 334 332 330 330 329 328 327 328 328 326 327 327 327 327 327 326 327 328 330 333 336 336 336 337 339 339 339 337 337 337 336 334 333 332 332 333 333 332 331 330 329 327 324 320 318 318 320 321 320 314 307 304 303 303 303 303
340 339 339 338 338 338 337 337 335 334 334 333 333 334 334 334 335 336 337 336 336 335 332 330 329 329 327 325 326 327 328 329 329 328 328 327 329 333 335 334 333 337 339 340 339 338 337 337 337 336 334 333 333 332 332 332 331 329 328 325 321 318 317 318 319 320 318 312 306 303 303 303 303 303
342 342 342 341 341 341 340 339 338 336 335 335 334 334 335 335 336 337 336 336 338 338 338 336 335 332 330 327 327 326 327 328 329 329 330 328 329 332 333 331 332 336 340 340 339 338 337 337 338 337 335 335 333 332 330 330 329 328 326 321 317 316 316 317 319 319 316 310 305 303 303 303 303 303
344 344 344 344 343 342 342 341 341 340 338 337 337 338 338 339 339 338 338 337 338 340 342 341 340 337 335 332 329 327 328 329 330 331 331 330 329 329 329 328 331 336 340 340 339 338 337 337 338 337 336 335 334 332 329 327 326 325 322 318 316 317 316 317 318 318 314 309 305 303 303 303 303 303
347 346 346 346 345 344 344 344 343 342 341 340 340 340 340 340 340 340 340 339 339 342 343 343 341 337 337 336 332 332 333 333 332 332 332 331 330 329 328 328 331 337 340 341 340 339 338 337 337 337 336 336 335 333 328 326 324 323 319 317 317 317 316 317 319 317 312 307 304 304 303 303 303 303
350 349 349 349 348 348 348 348 347 346 345 345 344 344 343 342 342 342 341 340 340 340 341 341 339 336 337 337 336 336 336 336 335 334 334 334 333 332 329 329 331 335 339 341 340 339 339 338 337 337 336 336 335 332 328 325 323 322 319 316 316 316 316 318 318 314 309 306 304 303 303 303 303 303
352 352 352 351 351 351 351 351 350 350 349 349 349 348 347 346 345 345 344 344 344 342 342 342 341 339 340 341 341 341 340 339 339 339 338 337 337 335 334 332 332 336 339 341 341 340 339 339 338 337 337 336 335 331 327 324 324 322 320 317 315 315 315 316 315 312 308 306 304 303 303 303 303 303
354 355 354 354 354 354 353 353 352 353 352 352 352 351 350 350 349 348 348 348 347 346 345 345 345 344 345 345 346 345 345 344 343 341 340 339 338 337 335 333 333 336 339 341 341 340 340 339 339 338 337 336 334 330 326 325 325 324 322 319 316 314 314 314 313 311 309 307 304 303 303 303 305 305
357 357 357 356 356 356 356 356 355 355 355 354 353 353 353 352 351 351 351 352 351 350 350 349 349 348 347 348 349 348 348 347 346 344 343 342 340 339 337 335 334 336 339 341 342 341 340 339 339 339 337 336 334 329 325 326 326 325 324 320 317 314 313 313 312 311 309 307 304 303 304 304 306 307
358 358 358 359 359 359 359 358 359 358 357 357 356 355 354 354 353 353 353 353 353 352 352 352 351 351 350 350 349 349 349 349 348 347 346 344 342 341 340 337 337 338 339 340 341 342 340 340 339 339 338 336 333 328 326 327 327 326 325 322 318 315 313 312 312 311 309 306 304 304 304 305 306 306
358 359 359 359 359 360 361 360 361 361 360 359 359 357 357 356 356 356 355 355 355 354 354 354 353 353 353 352 351 351 350 350 349 349 348 347 345 344 342 340 338 338 338 339 341 341 341 340 340 339 338 336 333 329 327 327 327 326 325 323 319 315 313 312 312 311 308 306 305 305 305 305 306 306
360 360 360 361 361 362 362 362 362 362 363 362 361 360 359 359 359 358 357 357 357 356 356 356 355 355 355 354 353 353 352 352 351 350 349 348 347 345 344 342 341 339 338 339 341 341 341 341 340 339 338 336 333 329 328 328 327 326 325 323 319 316 314 312 312 310 308 307 306 306 305 307 308 308
361 361 362 362 362 362 363 362 363 363 363 363 363 362 361 361 360 359 359 359 358 358 358 357 356 357 356 355 355 354 353 353 352 351 351 350 349 347 346 345 343 342 340 340 340 341 341 342 341 340 339 337 332 328 328 328 327 326 325 322 319 317 316 313 311 310 309 308 306 306 308 309 310 310
362 362 363 362 363 363 363 363 363 363 363 363 363 363 363 362 362 361 360 360 359 359 359 358 357 357 357 356 355 354 354 353 352 352 352 351 350 349 347 346 344 343 341 341 341 341 342 342 342 341 340 338 333 329 328 329 328 326 324 321 319 318 316 313 310 309 309 308 307 307 310 310 309 310
362 363 363 362 362 362 362 362 361 362 362 362 362 362 362 362 362 361 361 361 360 360 360 359 359 359 358 357 356 355 355 354 353 353 352 351 351 349 346 345 344 343 343 342 342 342 342 342 342 341 340 339 335 331 330 329 328 327 325 322 321 319 316 313 310 307 308 309 307 308 310 310 309 311
363 363 363 362 362 362 361 361 361 361 362 362 362 362 362 362 362 362 361 361 361 361 360 360 359 359 358 358 357 356 354 353 352 353 351 351 351 348 345 344 344 344 343 343 343 342 343 342 342 341 341 339 336 333 331 330 329 327 325 322 321 319 316 314 310 307 308 309 306 306 307 307 309 311
364 364 364 363 363 363 362 362 362 362 362 362 362 362 362 362 362 362 362 362 362 362 362 361 361 360 360 359 357 355 354 353 353 352 351 350 349 347 345 344 344 344 343 343 343 343 343 343 343 341 341 340 336 332 331 330 329 326 324 323 321 319 316 313 310 308 307 307 305 304 304 306 309 311
365 365 365 365 364 364 364 364 363 363 363 362 362 362 362 362 362 362 361 361 361 361 360 361 360 360 359 358 354 352 352 353 353 353 352 350 349 347 345 344 343 344 343 343 343 343 343 343 343 341 340 339 336 332 330 330 328 326 324 323 321 319 315 312 309 308 306 306 305 304 304 307 310 312
364 363 363 363 362 362 363 362 362 362 362 362 361 361 361 361 361 361 361 361 361 361 361 360 359 358 358 356 354 352 351 352 352 352 352 350 348 348 346 344 343 343 343 344 344 342 342 342 343 341 340 338 336 332 330 329 327 325 324 323 321 318 314 310 307 306 305 305 304 302 304 308 311 313
361 360 361 361 361 361 361 361 361 360 359 359 359 358 358 357 356 356 355 354 353 352 351 350 349 348 348 348 349 350 351 350 350 350 350 350 349 347 346 345 344 343 343 343 343 343 342 342 342 341 339 337 335 332 330 328 326 325 324 323 321 317 312 307 305 304 304 304 303 304 306 309 311 313
360 359 359 359 357 356 354 352 350 347 345 344 343 341 341 340 339 338 337 337 336 335 335 334 334 334 335 337 339 342 346 346 345 346 348 349 348 347 345 345 344 343 343 343 343 343 341 340 340 339 336 333 332 330 329 327 326 324 324 322 320 316 311 306 303 303 303 303 303 304 307 309 311 313
358 355 352 348 345 342 338 336 334 332 332 331 331 331 330 330 330 330 330 330 330 330 330 330 330 330 332 333 335 338 341 342 343 344 346 348 347 346 345 344 344 344 343 342 342 342 340 338 338 337 332 330 329 329 327 325 325 325 323 321 319 315 309 304 303 302 302 303 304 306 308 310 311 313
344 340 337 334 332 330 330 329 329 329 329 329 329 329 328 328 328 328 328 328 328 328 328 329 329 329 330 331 332 335 337 340 341 343 345 346 346 345 344 344 344 343 343 342 341 341 338 337 337 336 331 328 327 326 325 324 324 324 321 319 317 312 306 303 303 303 303 304 306 307 308 308 310 312
330 329 328 328 328 328 328 328 327 327 327 327 327 327 327 327 327 327 328 328 328 328 328 329 329 329 329 330 331 332 334 336 338 341 343 344 345 344 344 343 343 342 342 341 340 339 336 334 334 334 331 327 325 324 324 323 322 321 319 316 313 308 305 303 303 303 304 307 307 307 307 307 309 311
327 327 327 327 327 327 327 326 326 326 326 326 326 326 326 327 327 327 327 327 328 327 328 328 328 328 328 329 330 331 332 333 335 338 340 342 343 343 343 342 342 341 340 340 339 337 334 333 333 333 331 328 325 324 323 320 319 319 318 313 309 306 304 303 303 305 307 309 308 307 307 308 310 310
326 326 326 326 326 326 325 325 325 325 325 325 326 326 326 326 326 326 326 327 326 327 327 327 327 328 328 328 328 329 330 330 332 334 337 340 342 342 342 341 341 339 338 338 337 333 331 331 332 333 332 330 329 327 325 323 320 318 314 311 308 306 305 304 306 309 309 309 308 308 308 309 310 309
325 325 325 325 325 325 324 324 324 324 325 325 325 324 325 325 325 325 325 326 326 326 326 326 326 327 327 328 328 329 329 330 330 331 333 338 340 340 340 340 341 339 338 337 334 330 329 329 331 333 333 331 330 328 326 324 320 315 311 309 308 307 307 308 310 311 310 310 309 308 309 310 310 309
324 324 324 323 323 323 323 323 323 324 323 323 323 323 324 324 324 324 325 324 324 324 324 325 325 326 327 328 329 329 330 330 331 332 332 334 337 338 338 339 340 338 337 334 331 329 329 329 330 332 331 328 327 326 323 319 315 313 312 310 308 308 310 312 312 311 310 308 307 307 308 310 310 310
324 323 322 322 322 322 322 322 322 322 322 322 322 322 323 323 323 323 323 322 322 323 323 323 324 325 326 327 329 330 330 331 332 333 333 334 334 335 336 338 339 338 337 334 331 329 328 328 327 326 324 324 324 321 317 314 313 313 312 310 310 312 313 313 313 312 309 306 305 307 309 310 310 310
322 321 320 321 321 321 321 322 321 321 321 321 321 322 322 322 322 322 321 321 321 321 322 323 324 324 326 327 329 330 331 332 333 334 335 335 335 335 335 335 335 335 334 332 329 327 325 324 323 322 322 322 320 316 313 313 314 313 311 309 311 313 314 313 312 310 308 307 308 309 310 310 311 311
320 320 320 320 321 321 320 321 321 320 320 320 321 321 321 321 321 320 320 320 320 321 322 323 324 325 325 326 327 328 329 331 332 334 334 334 334 335 334 333 332 330 329 326 325 323 322 321 321 322 322 320 316 314 315 315 314 311 310 311 311 312 312 311 310 309 310 311 311 311 311 310 311 311
320 319 320 320 320 320 320 319 320 320 320 320 320 320 320 320 320 320 320 319 319 320 321 322 322 323 325 326 327 327 327 328 329 330 330 331 330 330 331 330 329 327 325 323 321 321 320 321 321 322 321 318 317 317 317 316 313 311 311 313 314 312 311 311 309 309 311 313 312 311 311 311 311 312
Wind_Speed
11 10 11 13 14 15 17 19 20 20 18 17 17 16 16 16 18 19 19 21 21 18 16 17 16 15 16 15 14 14 14 12 13 14 14 13 12 13 14 14 14 13 13 13 13 13 12 12 12 12 12 13 12 12 12 12 12 12 13 14 15 16 16 17 16 16 16 16 16 17 17 16 16 16
13 12 11 13 14 17 18 18 20 21 19 17 17 17 17 17 19 21 22 23 20 17 17 17 16 16 16 17 16 16 15 14 16 18 17 16 15 14 15 15 16 15 15 15 15 14 14 13 13 14 14 13 13 13 13 13 13 13 14 15 16 17 17 18 18 18 18 18 18 19 18 18 18 18
14 14 12 13 14 18 19 19 20 21 19 18 18 19 20 20 20 21 23 25 21 17 17 16 15 16 17 18 19 18 17 16 19 20 20 18 17 17 17 16 16 17 16 16 16 15 15 14 14 15 15 14 14 14 14 14 14 14 15 16 17 17 18 18 18 19 19 20 20 20 20 20 19 19
17 16 15 15 14 17 20 21 21 21 20 19 19 20 21 22 22 20 22 26 23 18 18 17 16 17 18 19 21 21 19 18 20 22 21 20 19 19 18 17 17 17 17 17 17 17 16 15 15 16 16 15 14 14 14 14 14 15 16 17 17 18 18 18 19 20 20 21 21 20 20 20 20 19
20 19 18 17 16 17 21 23 23 22 21 21 21 21 22 22 23 22 23 25 24 21 21 21 19 18 19 20 21 21 20 19 20 22 22 21 20 20 19 18 17 17 17 18 18 17 17 16 17 17 17 16 15 14 14 14 15 16 17 17 17 18 18 19 20 20 20 20 20 20 19 19 19 19
22 22 21 19 18 18 20 23 26 25 23 23 23 23 23 23 23 23 24 25 25 24 22 22 22 22 22 23 22 21 21 20 20 22 22 21 21 21 19 18 18 17 18 19 19 18 18 18 18 17 17 16 15 15 15 15 16 16 17 17 18 18 19 19 20 20 19 19 19 18 18 18 19 20
24 24 23 22 20 20 21 23 26 28 27 26 26 25 25 25 24 25 25 25 26 26 23 22 24 25 25 25 24 23 22 21 21 22 22 22 22 22 21 20 19 18 17 18 19 20 20 19 19 18 17 17 16 16 15 16 16 16 17 17 17 18 19 19 19 18 17 17 17 17 17 18 19 20
25 26 25 24 22 22 23 23 24 27 29 29 29 29 28 28 27 27 27 28 28 28 27 25 24 26 27 27 26 26 25 23 23 23 24 24 24 24 22 21 20 19 18 18 19 21 21 20 20 19 18 17 16 16 16 16 16 16 16 15 16 16 17 17 17 16 15 16 16 16 17 18 19 20
26 27 27 26 24 24 25 25 25 26 29 30 32 32 32 31 30 30 30 31 31 31 32 29 26 26 28 29 29 28 27 26 26 26 27 27 26 25 24 23 22 20 20 20 20 20 21 21 20 19 18 17 17 17 17 17 17 16 15 14 15 16 17 17 16 14 14 15 16 17 17 18 19 19
28 28 28 28 27 27 27 26 26 26 27 30 32 34 34 34 34 34 33 33 33 34 34 33 30 29 29 31 31 31 30 29 29 29 29 29 29 28 26 25 24 23 22 21 21 20 21 21 20 19 19 18 18 18 18 18 17 16 14 15 16 17 17 16 15 13 14 16 17 17 17 17 17 18
30 30 29 29 29 29 29 28 27 27 27 28 30 32 34 35 36 37 37 36 37 37 36 36 34 32 30 31 32 32 31 32 33 32 33 33 32 31 29 27 25 23 23 22 21 21 21 20 21 21 21 20 20 20 20 19 17 15 15 15 17 17 17 16 14 13 15 17 17 17 16 16 16 17
33 33 32 31 31 31 30 29 29 28 28 28 29 29 30 33 36 38 38 39 39 39 39 38 37 35 33 32 33 33 33 35 36 35 35 36 34 31 30 28 25 24 24 23 23 22 21 21 21 22 22 22 21 22 21 20 17 16 16 17 18 18 16 15 14 14 15 17 17 16 15 15 15 16
35 35 34 34 33 33 33 32 31 30 29 29 30 29 29 31 33 35 36 38 40 41 41 40 39 38 37 35 34 34 36 38 37 35 35 36 34 31 30 30 27 25 25 25 25 25 23 22 22 23 23 23 22 23 22 21 18 17 17 18 18 18 16 15 14 14 16 17 17 15 14 14 14 15
36 36 36 36 35 34 34 34 34 33 32 31 31 31 31 31 32 33 34 36 38 40 41 42 40 40 41 39 37 37 37 37 37 36 36 37 35 32 32 31 29 27 26 27 27 27 25 25 25 24 24 23 23 23 23 21 19 18 18 19 19 17 15 14 15 15 16 18 17 14 13 12 13 13
37 36 36 36 36 36 35 35 35 35 35 34 34 33 33 33 33 34 34 35 36 38 40 41 41 42 43 41 39 39 38 38 38 38 37 37 37 36 34 34 31 27 26 28 29 28 27 27 27 26 25 23 22 23 22 21 20 19 19 19 18 16 15 15 15 16 17 18 16 13 11 11 11 11
39 38 38 37 37 37 36 35 35 35 36 36 36 36 36 36 36 36 37 37 37 38 39 41 42 43 42 41 40 40 39 38 39 38 38 39 39 38 37 37 34 28 25 27 29 28 26 28 29 28 25 23 22 22 21 21 21 20 19 19 17 15 14 15 16 16 17 18 17 13 11 9 9 9
40 40 39 39 38 37 36 36 36 36 36 36 37 38 39 39 40 39 39 39 39 39 40 42 43 42 42 41 40 38 37 38 39 39 39 40 41 41 40 38 35 29 26 28 30 29 27 27 29 29 25 23 23 22 22 22 21 20 19 18 16 14 15 16 16 16 17 18 17 14 11 9 8 8
40 40 40 40 39 38 38 38 37 37 37 37 37 38 40 41 42 42 42 41 41 41 42 44 44 42 42 42 40 38 38 40 40 40 40 39 40 41 39 37 34 31 29 29 30 31 30 27 29 29 25 23 24 24 23 22 20 19 18 16 15 15 16 17 16 16 17 17 17 14 12 9 7 7
40 40 41 41 41 40 41 40 40 39 38 38 39 40 41 42 42 43 44 43 42 42 43 45 45 44 43 43 41 40 41 42 41 41 40 39 38 38 38 38 38 36 34 31 32 34 33 29 30 30 25 23 25 25 23 22 20 19 17 14 15 16 17 18 17 17 16 17 16 15 13 10 8 6
41 41 41 42 42 42 42 41 41 41 40 41 42 43 43 44 44 46 45 43 43 43 44 45 46 45 45 45 44 43 43 44 43 43 43 42 39 39 41 43 43 41 38 36 36 37 36 33 33 31 26 25 26 26 25 23 21 19 16 14 15 17 19 19 19 17 16 15 16 15 14 11 8 7
40 40 40 41 41 42 42 41 41 41 42 43 45 46 46 47 49 50 48 46 45 45 45 47 47 47 47 47 48 47 46 46 45 45 47 46 43 43 46 48 47 45 43 40 38 39 39 36 34 32 28 27 27 27 26 25 22 19 16 15 17 18 19 20 19 17 14 14 16 16 14 11 9 8
41 41 41 40 41 41 41 40 40 41 42 44 46 47 48 49 52 54 51 48 48 48 47 48 49 49 49 50 50 51 50 49 48 49 52 50 46 46 49 50 49 48 47 44 40 41 41 39 36 33 30 29 30 29 28 26 23 20 18 17 18 19 19 20 19 16 14 14 16 16 14 12 10 9
41 42 42 41 41 42 41 40 40 41 42 44 46 46 48 51 55 54 51 50 51 50 51 51 51 51 51 51 51 52 53 53 53 53 53 51 50 50 50 50 49 49 51 48 43 42 43 40 38 35 32 31 32 31 30 29 26 23 21 20 20 19 19 19 18 16 14 14 15 15 14 12 11 10
41 40 40 40 40 40 39 39 40 41 42 44 45 46 48 52 53 51 49 51 52 52 53 54 53 54 54 53 53 53 54 55 56 56 55 54 54 54 53 52 52 52 54 51 44 42 43 42 40 38 35 34 33 31 30 30 28 25 24 23 21 19 18 18 18 17 15 14 15 14 14 12 11 10
40 39 39 39 38 38 37 38 39 40 42 43 44 46 49 50 49 47 49 51 52 53 55 55 54 55 56 56 57 56 56 57 57 57 57 57 57 57 57 56 55 55 55 53 47 43 41 41 41 39 37 36 36 33 30 29 28 26 25 25 22 19 17 18 18 18 16 15 15 15 13 11 10 10
39 39 39 39 38 37 37 37 38 39 41 43 46 47 48 48 47 47 48 50 51 54 56 55 55 57 58 58 59 59 58 58 58 57 58 58 59 60 61 60 59 57 56 54 52 48 44 42 41 40 39 38 38 36 33 30 28 25 26 26 22 19 18 18 19 18 17 16 16 15 13 12 12 12
37 36 36 36 36 36 36 36 36 37 38 41 43 44 44 45 45 45 46 48 50 52 54 55 56 58 59 58 58 58 59 58 57 58 59 60 61 62 63 62 60 57 55 54 53 50 47 45 43 41 40 40 40 39 37 34 30 28 27 27 24 21 19 19 19 19 18 18 17 15 14 14 14 13
31 31 32 32 33 32 32 31 32 33 34 36 37 38 40 41 42 43 45 47 48 49 52 54 56 58 59 59 57 57 57 56 56 58 60 61 64 65 64 61 58 54 52 53 53 52 50 49 47 45 42 42 42 42 40 38 34 31 29 27 25 23 21 21 21 20 19 20 18 17 17 16 15 15
28 29 30 30 30 29 28 27 28 30 32 34 35 37 38 40 41 43 45 47 48 50 53 54 56 57 58 59 58 55 53 53 54 57 59 61 63 62 58 56 54 53 52 54 56 55 54 52 51 48 45 45 44 43 41 38 35 32 30 28 26 24 22 22 22 20 21 21 20 18 18 18 17 16
27 29 30 31 32 33 33 33 34 35 36 37 38 39 40 42 44 45 47 48 50 53 55 56 58 58 59 59 57 53 51 53 55 57 60 61 60 58 55 53 54 56 56 58 60 60 58 56 54 51 49 48 47 44 42 38 33 31 30 28 26 23 23 24 24 22 21 21 19 19 19 19 18 17
28 30 32 34 34 35 36 36 36 37 38 39 40 41 43 45 46 48 49 50 51 54 56 57 59 59 59 58 54 51 53 57 57 57 59 58 57 56 54 53 56 59 60 60 61 61 60 58 55 53 52 51 48 45 41 37 33 31 31 29 27 25 24 24 24 23 22 21 20 21 21 20 19 17
25 26 27 28 29 30 30 31 32 34 35 36 37 39 41 43 45 47 49 51 53 54 56 58 59 59 58 57 54 52 54 56 56 56 57 57 57 57 56 55 57 59 60 61 61 61 62 60 57 56 55 53 50 46 42 38 35 33 32 31 28 26 25 24 24 22 21 22 23 23 22 20 19 16
21 21 21 22 24 25 26 28 29 31 32 34 35 37 39 41 44 45 47 50 53 54 56 58 59 59 57 56 55 56 56 57 57 58 59 59 59 59 58 57 58 59 60 63 63 63 63 62 59 58 55 52 49 46 43 40 37 36 35 32 29 27 27 26 24 22 21 22 22 22 22 21 18 16
18 19 20 21 23 24 26 27 28 29 31 32 34 35 36 38 40 42 44 46 49 50 52 54 56 56 55 53 53 55 57 59 60 60 60 60 60 60 59 60 60 60 61 64 65 65 63 61 59 55 51 49 47 45 42 39 38 37 36 33 30 29 27 26 25 23 22 22 21 21 22 21 18 16
19 20 20 21 22 22 22 23 24 24 25 26 28 29 30 31 32 34 36 38 40 42 44 47 48 50 50 50 50 52 53 55 57 58 58 58 59 60 61 62 63 62 62 63 64 63 62 61 60 56 50 48 47 44 41 38 37 36 35 33 30 29 27 26 25 24 23 22 22 23 23 20 17 15
17 17 17 16 17 17 17 17 18 19 19 20 21 23 24 26 27 29 32 34 37 39 41 43 45 46 47 48 49 50 51 53 54 55 56 58 59 61 63 65 66 65 64 64 64 64 63 64 64 61 55 51 48 46 44 42 40 37 34 32 32 30 28 26 25 24 23 23 23 24 23 19 16 14
12 12 12 12 12 12 13 14 15 15 17 18 20 23 26 28 29 31 33 34 36 38 39 41 43 45 47 48 49 49 50 52 53 54 56 57 58 60 63 65 66 65 64 64 65 64 64 65 64 62 58 54 51 50 48 44 40 37 33 31 31 30 27 25 25 25 24 22 23 23 21 17 13 13
9 9 9 10 10 11 12 13 15 16 18 21 23 24 25 27 28 29 30 31 32 34 36 38 40 43 46 47 48 49 51 51 52 53 54 55 57 60 63 64 64 64 63 64 65 65 65 66 65 64 63 60 57 54 50 44 40 37 34 32 30 27 26 26 26 25 23 21 21 21 18 15 12 12
7 7 8 8 9 10 12 14 16 18 18 19 20 21 22 23 25 26 28 29 31 33 36 38 40 42 44 44 44 46 49 50 50 51 52 53 54 57 59 61 61 60 61 63 63 63 64 66 68 68 68 67 64 62 58 50 42 37 35 33 29 26 25 27 27 24 21 19 19 18 16 14 13 13
6 6 6 8 9 12 14 15 15 15 15 16 17 19 22 24 25 27 29 31 33 36 38 40 42 44 44 43 40 40 42 46 47 47 47 49 51 54 56 59 60 61 63 63 62 62 64 68 71 72 70 68 64 60 53 44 36 32 29 27 25 24 25 26 25 23 20 18 17 17 16 14 14 14
4 6 8 10 12 13 13 13 13 13 15 17 19 20 21 23 24 26 29 31 34 37 40 43 45 45 45 43 38 35 36 39 41 41 41 43 45 49 51 53 56 57 57 56 57 62 67 70 70 68 66 65 60 50 41 36 33 30 27 25 24 23 23 23 23 21 18 16 17 17 16 15 15 15
6 9 10 12 13 12 11 11 12 14 16 18 19 19 20 22 23 25 28 31 34 36 40 43 45 45 45 42 36 30 30 33 36 37 37 38 39 40 41 44 50 56 58 58 60 63 64 65 63 60 58 55 50 42 38 36 33 29 26 25 24 22 21 21 21 19 17 16 17 18 17 16 17 16
7 10 11 11 11 11 10 11 12 14 16 17 17 18 19 20 21 24 27 30 33 36 38 41 43 45 45 43 36 27 24 27 31 32 33 33 34 34 34 33 38 44 48 51 53 55 55 56 55 52 48 43 37 34 35 33 29 26 25 22 20 20 20 19 18 16 16 17 17 17 17 16 16 15
7 9 10 10 10 10 10 11 12 13 14 13 14 16 17 17 19 22 25 28 30 33 35 36 38 41 43 42 37 30 24 24 25 27 28 28 29 31 31 29 26 24 23 23 27 34 40 44 44 41 38 34 29 29 29 26 22 21 19 17 16 18 19 16 15 16 17 17 17 17 16 15 14 13
6 8 8 9 10 10 11 11 12 12 11 10 11 13 15 15 17 20 22 23 26 29 32 33 34 36 37 36 34 30 27 23 19 16 15 15 14 16 18 19 18 18 19 21 24 28 31 34 34 32 29 27 23 22 21 20 18 17 14 13 14 16 16 15 16 17 18 17 16 15 13 13 12 12
Wind_Direction
234 241 237 229 229 224 212 208 216 222 220 220 221 221 226 238 245 244 243 248 253 255 254 254 257 258 253 251 253 256 260 264 267 269 274 279 281 277 273 272 271 268 265 262 261 260 259 260 261 263 267 269 273 277 280 285 288 293 298 301 303 305 306 308 311 312 314 315 317 321 322 321 319 317
231 236 239 232 225 223 218 210 212 217 218 221 227 228 229 235 243 247 251 256 258 255 253 253 255 257 252 248 251 255 258 261 263 266 270 274 280 280 273 269 269 267 264 261 257 254 253 254 256 258 261 265 269 272 275 280 284 288 292 296 298 299 301 304 307 310 311 313 315 317 319 318 316 314
232 232 236 237 228 224 225 216 210 214 219 221 225 231 235 238 241 245 251 257 258 254 255 257 258 260 257 252 253 256 258 258 258 262 268 272 277 280 275 270 268 266 263 260 256 252 251 252 253 255 258 262 265 269 273 278 282 286 289 292 295 295 297 300 303 306 307 309 311 314 315 316 315 315
237 236 235 238 234 228 229 224 217 217 222 224 224 228 235 241 244 245 245 250 255 256 257 260 258 257 256 252 252 256 258 257 255 258 264 268 273 276 273 270 269 266 261 257 255 251 251 252 254 255 257 259 263 268 273 278 281 285 287 290 293 293 295 297 299 301 303 305 307 309 311 312 313 314
241 243 239 237 236 232 232 232 229 226 225 227 228 229 233 238 244 246 245 249 256 259 258 259 257 253 250 249 250 254 257 256 254 256 260 264 268 272 272 271 271 267 260 256 254 252 251 253 253 254 253 256 263 268 272 278 281 284 286 288 290 291 292 293 295 297 299 302 303 304 306 308 310 312
244 246 245 241 236 233 233 234 235 235 233 231 233 235 237 238 241 245 248 251 257 261 260 258 258 255 252 252 252 254 258 258 256 257 261 263 267 270 271 272 273 269 262 257 256 254 253 253 252 252 252 256 263 267 270 275 280 282 282 283 285 286 287 288 290 293 297 299 298 299 302 306 309 311
245 247 248 247 241 236 235 234 235 237 238 237 238 240 242 244 245 246 249 252 256 261 262 259 257 257 257 257 257 258 259 259 256 257 260 263 265 267 268 272 274 272 265 260 258 257 255 253 251 251 254 257 261 265 268 273 277 278 280 281 282 282 283 284 287 291 294 294 294 297 301 306 308 309
247 248 249 250 247 243 240 237 236 236 238 240 242 243 244 247 249 250 251 253 256 260 262 261 258 257 258 259 259 258 257 255 253 254 257 259 262 265 269 271 273 272 268 262 259 257 255 253 251 251 254 256 258 263 267 270 273 275 278 278 279 279 281 282 284 288 289 291 294 297 302 306 307 307
248 249 251 252 252 250 248 244 241 239 240 242 244 246 247 248 249 250 251 254 256 258 261 262 259 256 256 257 258 257 255 253 252 252 254 256 260 265 268 270 271 271 268 264 260 256 254 252 250 249 250 252 257 262 266 268 270 273 275 275 276 280 283 283 282 282 287 292 294 298 303 306 306 305
248 249 252 253 254 253 253 252 250 248 246 245 245 247 247 249 250 251 251 252 254 257 260 262 261 257 254 255 256 256 255 255 254 254 255 258 261 263 265 266 268 269 267 264 260 255 252 251 251 249 249 252 257 262 265 268 269 271 272 274 279 285 286 282 278 281 290 294 295 299 304 306 304 302
248 249 251 252 254 255 256 256 256 255 254 252 251 250 249 249 251 252 254 254 254 256 258 260 260 259 255 253 254 255 255 255 256 256 256 258 260 261 263 264 266 268 267 263 256 252 250 251 253 253 252 253 256 260 264 267 268 268 271 276 283 288 287 281 277 284 293 296 298 303 305 303 300 298
249 249 250 251 252 255 257 258 259 258 258 257 256 256 255 252 252 253 255 257 257 258 258 258 260 260 257 253 252 251 250 250 253 255 256 258 260 261 263 265 265 267 267 263 256 252 250 251 254 255 256 256 257 260 264 266 266 267 271 278 284 286 283 278 278 286 292 297 301 302 300 298 295 292
252 252 252 252 253 255 256 258 260 260 260 259 259 260 260 258 256 256 256 257 258 258 258 259 259 259 258 255 251 249 248 251 255 258 257 259 262 262 262 264 264 264 265 264 259 255 253 253 255 256 257 258 258 260 263 264 265 267 271 278 281 280 276 275 279 285 291 298 301 297 293 291 288 286
256 256 256 256 256 257 258 259 259 260 260 260 260 261 262 261 260 259 259 259 259 259 259 260 260 259 260 260 256 253 254 256 258 257 255 258 261 260 258 260 261 261 261 261 259 258 255 253 254 255 256 257 257 258 260 261 263 265 270 275 275 272 271 273 278 284 290 296 297 292 288 286 284 285
259 260 260 260 260 260 260 260 259 259 259 260 260 260 261 261 261 261 261 261 261 260 261 262 262 261 262 265 264 262 261 259 258 258 257 258 257 255 254 257 259 260 259 258 259 259 256 253 252 253 253 254 254 255 257 259 261 264 269 271 269 266 267 272 277 283 290 295 294 290 285 282 282 284
262 262 262 263 263 263 263 263 262 261 260 260 261 261 261 262 262 262 262 262 262 262 263 264 264 263 264 266 266 265 265 263 261 260 258 257 256 254 254 256 258 259 258 256 257 258 255 252 251 251 250 250 250 251 254 255 258 263 266 264 261 260 264 270 276 283 289 292 291 287 282 279 280 281
263 264 264 264 264 265 266 266 266 265 264 264 263 263 263 263 262 262 262 263 263 263 265 265 266 266 267 267 267 267 267 266 264 262 258 257 256 254 254 256 259 261 257 252 253 255 252 249 249 250 249 248 247 249 252 255 258 260 260 258 257 260 265 269 275 281 286 288 286 283 280 279 276 271
264 264 265 265 266 267 267 267 268 268 268 268 267 266 265 264 264 264 263 262 262 261 262 263 265 267 267 267 270 270 268 267 266 264 262 260 258 258 259 262 263 261 255 251 251 253 251 246 247 249 249 247 247 249 252 256 256 255 253 254 257 262 265 268 273 279 282 281 279 278 278 276 266 254
264 265 265 266 267 268 268 269 270 270 271 271 271 270 269 268 268 267 266 265 264 263 263 263 266 270 269 270 272 272 269 269 269 269 269 268 266 266 265 263 259 254 250 247 247 249 250 246 245 248 248 247 247 249 251 252 250 249 250 253 257 261 264 267 270 273 273 272 273 273 272 269 259 248
264 265 265 266 267 268 269 270 271 271 271 271 271 271 271 272 271 271 270 269 268 268 267 267 269 272 272 272 273 272 270 270 271 271 270 266 263 263 261 257 254 250 246 242 241 244 247 246 245 246 246 245 245 246 248 247 245 245 246 248 255 259 261 264 266 264 264 266 269 268 264 260 256 251
263 265 266 267 269 270 271 271 272 272 271 270 270 270 272 272 273 273 272 270 270 271 271 270 271 272 273 272 271 271 269 268 269 268 265 261 259 258 256 254 253 250 247 242 238 240 244 246 246 246 245 244 243 244 245 243 241 242 241 244 253 258 259 259 258 257 260 264 264 261 255 249 247 250
263 264 265 267 268 270 272 273 274 273 272 271 270 270 272 272 273 273 271 271 273 273 272 271 271 271 272 270 269 269 268 266 265 262 261 261 260 257 255 254 254 253 250 246 240 240 244 246 246 245 243 241 242 242 242 240 239 238 237 240 249 255 255 253 251 252 257 258 256 253 247 240 239 246
264 265 267 268 269 270 272 273 273 273 271 271 271 271 271 272 273 274 273 273 275 275 274 274 273 273 273 272 270 270 268 266 263 260 260 260 258 255 255 255 252 251 252 251 244 240 244 247 245 242 238 237 238 238 237 237 239 239 237 239 245 250 252 249 247 250 251 250 249 246 239 234 236 243
263 264 266 268 270 272 274 274 274 273 272 271 272 271 269 270 274 277 277 277 278 277 276 277 276 277 277 275 272 271 269 266 264 261 261 259 255 253 253 252 250 249 252 255 249 243 244 246 246 243 239 238 240 240 237 237 239 238 236 238 241 245 248 247 247 247 245 243 245 241 234 231 235 243
262 263 264 266 268 270 272 273 274 275 274 274 273 271 270 272 277 280 279 279 279 277 276 276 276 276 276 274 271 269 268 267 265 263 262 260 256 252 250 249 248 247 251 253 251 247 245 245 245 243 239 238 241 243 241 238 238 237 236 238 240 242 247 249 246 245 243 240 239 237 231 231 237 245
265 266 268 270 271 271 272 273 274 275 276 275 274 274 275 277 279 278 277 277 276 275 274 273 272 273 272 270 269 268 267 267 266 264 264 263 259 255 252 249 247 247 250 252 250 247 245 245 246 243 238 236 238 241 240 236 235 233 233 234 235 239 247 248 244 244 242 237 236 235 234 236 239 244
271 273 274 275 276 276 276 276 276 276 277 277 277 279 281 282 282 281 279 277 275 274 273 271 270 270 270 268 267 266 267 267 266 265 265 264 262 258 254 250 246 247 250 252 251 248 247 247 248 246 240 236 235 235 235 234 232 231 230 230 231 238 245 243 241 242 240 237 237 237 237 241 241 241
273 274 274 275 275 275 276 277 277 277 276 276 278 280 282 283 283 282 280 279 278 277 275 272 270 271 270 268 267 268 268 269 269 269 267 265 263 259 253 248 245 244 246 249 250 249 247 248 249 248 244 238 235 234 235 234 232 232 232 230 232 238 240 238 238 239 235 235 237 237 239 243 241 239
267 267 268 270 272 272 271 271 271 272 273 275 277 279 281 282 282 281 280 279 279 278 276 274 273 273 273 272 269 268 269 270 270 269 267 264 262 257 250 245 243 242 243 247 249 248 247 246 247 247 245 241 237 235 236 236 234 234 233 231 234 240 240 237 237 237 233 235 238 239 241 243 238 236
263 265 266 266 267 267 267 268 270 272 275 277 279 280 281 281 281 281 281 281 280 279 279 278 277 277 278 276 271 267 269 271 270 269 268 265 261 256 249 243 241 241 243 245 246 246 245 245 245 245 244 242 237 234 234 234 233 232 233 232 235 239 238 235 235 235 233 235 238 240 240 236 232 233
261 265 267 268 269 270 271 272 274 275 277 278 279 279 280 280 281 281 282 281 281 280 279 279 278 279 280 277 272 269 270 272 272 271 270 266 261 256 251 244 240 241 242 242 242 242 242 242 242 242 241 238 234 231 232 231 229 229 230 231 234 237 238 236 233 232 232 232 234 235 233 228 228 233
263 266 269 270 271 272 272 273 274 274 275 277 278 279 280 281 282 282 282 282 281 280 280 281 282 282 282 280 278 276 275 274 274 274 272 268 262 257 252 245 240 239 239 238 239 240 240 239 238 240 240 237 232 229 227 224 225 227 229 230 234 238 239 236 230 227 226 228 230 230 227 224 226 233
263 264 265 266 267 269 270 271 272 273 274 275 276 277 278 279 280 281 282 282 282 282 284 284 284 285 285 283 282 281 280 278 277 275 273 270 263 256 251 246 242 238 236 236 238 239 238 236 235 237 238 235 231 229 225 220 220 224 226 228 232 235 235 232 226 222 221 224 226 225 223 222 225 231
262 264 266 267 269 271 272 273 274 275 277 278 278 279 279 280 282 283 284 284 285 286 286 285 285 285 285 283 281 280 278 278 277 276 274 270 261 253 248 246 244 240 237 236 236 236 234 231 229 230 230 228 226 228 228 225 223 223 223 225 231 234 233 228 222 219 220 223 224 221 220 221 225 230
269 271 273 274 276 278 279 281 283 284 285 286 287 287 287 287 287 288 289 291 293 293 293 293 292 291 289 286 283 279 277 276 275 274 272 267 259 251 247 245 244 242 238 234 233 232 229 225 222 220 218 217 217 219 222 223 223 222 221 223 229 231 227 222 218 216 218 221 221 219 219 220 223 229
275 277 278 280 282 285 287 289 291 292 294 296 298 300 301 301 301 302 304 306 306 306 305 304 301 298 295 291 287 282 278 274 272 270 267 263 257 252 247 245 243 240 236 233 231 229 225 222 218 214 209 206 205 207 210 213 216 217 219 222 224 222 217 215 215 215 216 218 219 219 219 219 220 231
279 280 283 287 290 294 297 299 303 308 311 315 319 321 321 321 319 318 317 315 314 312 311 308 305 301 298 294 289 283 279 275 272 269 265 261 257 252 248 244 241 236 232 230 228 225 221 217 213 209 204 199 198 201 205 208 209 210 215 219 219 215 210 209 211 212 213 217 220 222 221 218 222 238
283 289 296 303 309 313 316 320 324 327 328 329 330 330 330 330 330 329 328 326 326 325 323 319 314 308 303 298 291 284 281 278 274 271 267 262 258 253 248 244 238 233 229 227 225 221 216 212 210 208 204 200 198 199 200 201 202 205 210 213 210 205 204 206 208 209 212 216 220 222 220 219 227 239
296 304 310 315 321 327 330 332 334 335 335 337 339 340 342 344 344 345 345 345 344 342 338 334 329 323 316 307 296 287 282 279 276 273 270 266 261 257 252 246 239 233 228 224 219 214 210 208 208 208 206 205 206 205 203 201 200 202 204 205 204 203 204 204 203 206 210 213 217 217 216 219 230 235
311 319 327 331 336 338 339 341 343 345 347 351 353 353 353 353 353 355 356 356 355 353 350 348 345 339 331 320 306 291 284 282 279 277 274 271 268 264 258 251 243 235 228 221 214 207 205 206 208 209 210 209 209 208 205 201 195 191 190 192 196 201 203 201 201 205 208 211 214 214 213 219 230 232
353 357 355 350 347 347 348 351 355 355 356 357 357 357 357 357 359 2 4 5 3 0 358 357 355 350 343 332 316 298 287 285 283 281 278 276 275 272 267 258 247 236 227 219 211 206 205 207 208 208 207 205 203 200 194 188 182 178 178 182 187 192 197 200 204 210 211 210 211 211 210 217 226 230
18 8 1 357 356 357 357 356 356 356 357 357 358 359 0 3 8 13 14 14 12 7 3 1 359 357 351 341 327 307 293 291 291 289 286 283 281 282 280 270 255 241 229 220 213 207 204 202 201 199 196 194 191 184 177 176 176 174 176 182 186 188 193 197 202 208 213 213 210 206 205 212 221 227
19 12 8 7 5 2 357 352 352 355 357 358 360 3 7 13 20 23 22 20 17 14 10 6 2 1 358 350 339 324 307 298 294 291 287 286 285 286 286 276 257 241 229 219 210 202 196 192 191 188 184 180 176 169 166 169 173 173 175 180 184 187 193 198 201 206 209 208 206 205 207 214 222 227
25 21 18 15 11 5 357 349 350 354 356 357 3 9 15 22 27 26 24 24 23 22 21 17 10 6 2 357 352 346 334 316 301 291 287 286 286 283 278 267 250 233 219 202 187 180 176 176 177 176 171 165 163 162 160 160 165 170 172 177 186 194 200 204 206 206 204 201 203 207 212 219 225 230
31 27 22 19 17 14 4 355 352 355 354 350 352 360 6 13 16 14 17 24 31 34 35 35 30 22 14 7 4 1 356 347 333 315 300 287 271 260 252 238 215 189 167 148 137 136 142 151 158 161 156 151 151 152 149 148 153 158 163 179 198 204 204 205 208 210 208 207 209 213 218 223 226 229